Wind_Speed
71 71 69 69 64 68 71 72 72 72 73 74 77 78 79 78 78 79 81 83 82 83 86 85 86 82 84 84 80 82 81 79 79 80 72 70 68 69 68 70 76 83 76
68 64 63 69 70 64 67 70 71 75 76 75 77 79 79 80 80 84 87 88 88 87 78 81 80 83 82 82 82 80 79 77 81 75 67 70 65 66 71 79 82 81 72
64 69 75 66 69 67 61 69 71 71 71 73 76 78 81 81 80 81 80 80 79 79 79 82 83 82 80 80 80 79 81 81 80 67 67 67 63 73 78 74 79 70 65
67 66 74 80 76 74 74 77 75 74 72 74 73 74 77 77 75 77 80 81 83 81 76 77 78 75 77 80 78 84 80 73 69 66 65 69 73 74 72 74 70 60 50
68 67 69 72 74 79 82 78 77 79 76 75 76 77 75 75 76 72 67 70 74 68 70 74 72 76 80 78 81 81 74 66 64 65 72 73 73 71 68 68 55 48 43
54 56 63 73 77 78 79 78 76 74 69 73 75 69 67 69 65 63 68 71 72 69 73 67 73 74 77 76 88 75 65 63 70 73 74 70 71 69 63 51 44 40 39
51 52 62 62 63 63 61 58 66 72 68 66 63 66 65 58 61 65 68 65 67 70 70 74 81 75 79 90 77 69 67 72 77 75 77 70 70 60 51 42 34 34 34
42 56 61 56 56 56 52 50 57 56 56 59 61 60 57 58 60 66 60 64 65 72 80 77 73 82 92 74 69 71 81 82 77 74 76 66 60 51 45 42 39 31 29
50 57 52 53 58 57 54 50 50 57 57 56 55 61 58 61 62 63 64 69 78 83 75 83 82 82 75 72 83 86 89 76 74 70 69 63 56 51 44 45 36 31 32
65 68 55 54 48 49 46 53 51 54 57 53 57 56 59 59 60 68 77 74 77 83 88 78 80 80 79 83 89 87 80 79 76 71 65 62 54 50 47 45 44 42 40
51 52 58 56 52 52 52 44 53 49 44 48 52 57 61 60 71 77 80 81 85 85 83 82 81 85 87 89 84 81 80 77 71 60 57 59 50 50 49 39 47 52 48
43 53 62 62 55 56 57 56 54 51 52 56 57 56 67 73 82 84 84 87 88 87 85 85 88 87 83 83 84 82 81 74 67 62 53 46 43 39 41 51 55 56 64
43 55 57 56 55 55 54 56 59 61 64 64 72 75 77 79 83 85 88 83 82 87 88 92 78 82 84 84 81 76 69 65 61 56 56 51 51 51 54 63 70 70 72
38 46 52 55 57 58 59 66 66 66 71 71 73 74 79 83 77 82 83 83 90 83 85 86 87 88 83 82 78 71 67 64 65 62 63 66 65 67 70 68 69 77 82
46 46 48 57 58 63 67 65 71 74 74 75 76 77 79 83 86 91 90 88 86 86 83 85 86 88 86 85 77 72 69 72 74 73 77 75 79 82 82 81 87 83 77
58 61 63 65 65 66 67 72 77 78 82 85 85 89 88 91 93 92 95 94 92 89 91 89 91 84 80 76 75 75 77 79 80 82 82 82 88 83 84 85 77 74 71
55 64 64 68 73 76 77 79 80 84 86 88 91 95 89 89 88 92 90 88 88 86 83 83 81 79 74 76 79 82 81 86 87 85 86 81 78 76 78 77 72 70 70
52 66 66 75 80 85 87 83 83 85 82 79 76 80 83 82 83 83 86 84 82 80 76 76 75 75 78 80 82 84 83 81 81 80 78 74 71 68 66 64 66 68 68
51 47 53 49 62 61 58 60 59 62 66 67 71 70 70 74 78 79 75 72 69 69 72 76 79 81 84 83 81 79 78 77 76 75 70 69 68 69 70 72 73 75 77
38 45 47 45 51 59 61 61 63 64 66 69 70 74 74 74 70 69 66 67 69 71 72 73 74 73 71 69 69 68 68 67 65 64 67 71 73 76 78 81 84 85 85
38 41 47 49 50 52 58 63 67 67 67 68 71 67 64 61 61 62 63 63 63 64 64 67 69 70 70 71 71 72 72 72 73 73 74 79 82 85 89 94 97 99 101
40 40 52 58 64 64 62 63 63 62 60 59 54 56 55 55 53 50 51 55 61 63 65 68 70 73 75 76 75 74 74 75 75 77 79 82 89 94 99 105 107 109 111
50 51 54 54 53 54 56 57 54 54 51 50 49 49 45 43 45 50 55 60 63 68 74 74 73 74 73 74 76 77 75 75 74 80 85 91 99 103 107 113 118 121 122
46 46 48 48 51 50 50 48 44 45 44 43 42 41 44 47 51 56 61 65 70 74 78 79 78 76 75 74 77 78 77 75 75 77 86 95 104 111 117 123 127 128 128
39 40 41 43 45 41 41 42 43 42 39 40 42 45 53 55 59 63 67 71 76 80 83 85 81 79 78 76 75 77 81 86 93 97 97 104 111 117 122 124 126 126 121
37 37 38 38 40 41 42 42 41 40 42 44 48 53 55 58 62 66 70 72 77 80 84 86 81 79 78 78 82 88 93 97 102 106 108 109 110 113 117 118 115 109 106
Wind_Direction
260 265 268 269 270 271 269 269 269 269 272 275 277 278 279 279 282 284 288 288 289 290 290 292 290 291 292 298 302 302 301 301 303 303 301 301 302 300 297 297 299 302 302
262 261 266 270 269 270 268 267 270 269 272 276 276 278 278 280 282 283 286 285 288 288 291 289 289 291 296 301 300 303 302 303 306 304 302 300 296 291 296 300 300 301 302
261 252 256 262 270 268 266 269 270 273 275 274 274 275 278 282 283 283 284 288 289 288 288 292 293 293 296 299 304 308 307 311 305 303 298 295 292 297 300 301 305 302 300
255 253 257 260 265 266 266 271 275 275 276 277 279 279 279 281 285 285 287 287 288 290 293 293 294 298 301 304 304 309 309 307 299 295 297 297 299 301 302 302 301 300 291
259 261 257 261 264 267 268 269 270 273 274 277 278 279 280 283 283 287 290 290 293 291 289 296 297 299 302 301 306 306 304 299 297 295 300 302 303 302 301 300 295 289 283
263 270 265 264 266 267 270 271 273 277 275 276 275 280 280 287 283 288 293 295 293 291 293 293 294 294 296 300 303 302 295 295 299 301 303 301 303 299 296 289 284 278 278
271 271 272 268 266 267 270 273 271 270 273 274 283 285 282 280 283 289 293 292 289 290 290 290 295 297 299 301 298 295 293 296 303 302 304 302 302 292 286 280 283 279 278
251 259 269 258 260 263 269 268 269 268 271 273 280 280 278 284 284 292 291 290 284 287 293 291 294 298 303 297 296 295 299 304 305 303 302 298 296 285 274 271 272 274 275
228 252 266 265 264 260 254 272 271 268 267 275 274 274 277 285 288 289 284 279 284 286 290 299 297 298 295 291 297 303 304 303 302 300 297 296 290 285 271 273 270 276 284
220 237 249 258 269 269 255 270 274 272 273 269 270 278 287 285 281 282 281 286 285 289 295 295 292 293 293 298 298 302 302 300 299 296 291 289 286 274 264 269 269 288 282
229 238 243 250 253 256 264 263 267 268 276 282 284 285 279 276 275 277 285 289 290 291 292 292 294 295 296 298 302 299 299 297 294 291 289 290 288 278 272 268 294 273 285
223 227 236 243 252 252 260 264 262 267 274 278 275 270 273 279 282 286 287 288 288 289 288 293 294 300 301 298 298 298 297 294 293 289 289 286 286 289 277 293 294 292 294
227 228 239 245 254 257 253 254 260 262 265 277 278 279 279 284 288 290 290 290 288 291 296 295 299 302 301 298 297 296 291 288 292 289 291 293 291 290 298 290 290 293 292
225 239 245 252 252 252 252 252 252 259 265 273 279 279 282 282 288 292 291 293 294 296 295 296 297 299 300 298 297 295 293 295 298 295 301 300 299 301 297 286 287 290 293
210 215 230 239 247 248 249 255 257 264 269 271 280 281 282 284 285 291 291 294 293 296 297 298 298 297 296 296 296 297 298 300 302 301 300 298 296 292 294 293 289 287 288
230 237 243 247 252 256 260 263 261 265 268 273 279 281 281 284 287 288 288 289 291 292 293 294 296 296 296 296 298 299 296 293 292 289 289 287 286 287 286 286 287 286 281
233 241 247 251 253 255 258 262 267 267 273 280 280 282 284 285 285 287 288 289 291 294 295 295 296 296 296 296 296 293 294 288 284 286 289 287 286 286 283 286 284 282 280
237 238 250 249 253 255 258 264 267 274 280 281 284 282 284 286 286 290 291 291 292 293 295 296 296 294 295 293 292 292 291 290 290 290 288 288 286 283 280 278 277 278 276
245 255 258 261 258 264 271 270 271 275 278 281 281 284 287 289 289 291 292 293 294 294 294 292 293 295 294 294 294 295 295 295 293 293 293 291 289 286 281 279 279 278 277
255 256 259 260 265 269 269 271 273 277 277 279 282 286 289 289 290 290 293 294 294 295 295 295 295 294 293 291 290 292 293 292 289 287 286 285 283 282 281 279 277 275 274
255 254 258 256 268 268 270 272 273 275 279 282 288 290 288 289 290 293 298 301 302 302 300 296 294 293 294 294 294 295 294 292 288 286 284 283 284 283 281 279 278 278 277
263 263 265 265 267 271 274 278 282 287 287 287 286 284 286 290 297 303 307 309 310 311 309 303 300 298 296 296 296 296 294 295 292 288 286 285 285 286 285 284 282 281 280
266 263 265 269 271 273 278 282 282 282 282 282 285 290 296 300 302 305 309 311 311 312 312 307 302 299 298 297 296 294 293 291 288 289 290 290 289 288 287 285 285 284 284
273 275 276 276 279 278 279 279 277 278 281 286 292 295 296 298 303 309 310 312 313 313 314 311 306 303 300 299 297 298 297 294 290 284 284 284 285 285 285 286 286 286 285
276 276 274 276 276 275 274 275 275 279 286 287 290 294 303 304 306 309 311 310 313 313 314 313 308 304 301 300 299 299 298 295 292 289 287 286 285 285 285 285 285 285 285
276 273 273 272 270 270 273 278 283 287 288 287 290 291 294 297 301 304 307 308 309 308 309 311 306 302 299 299 299 298 298 296 295 293 291 290 289 287 287 287 286 286 284
Height
10856 10858 10860 10859 10862 10864 10865 10868 10869 10870 10869 10869 10866 10864 10862 10861 10859 10856 10853 10849 10846 10841 10838 10836 10834 10830 10827 10826 10822 10818 10816 10812 10806 10800 10797 10792 10788 10782 10774 10773 10768 10763 10757
10851 10853 10848 10845 10850 10854 10854 10856 10857 10859 10859 10858 10855 10853 10852 10850 10849 10846 10843 10838 10833 10829 10824 10822 10819 10817 10815 10813 10810 10806 10804 10802 10793 10785 10783 10780 10777 10772 10765 10758 10754 10749 10743
10843 10843 10838 10835 10837 10843 10844 10844 10845 10849 10850 10847 10843 10842 10841 10839 10837 10833 10830 10827 10821 10816 10812 10809 10807 10804 10804 10801 10797 10793 10791 10791 10775 10773 10770 10766 10763 10759 10754 10746 10740 10735 10728
10832 10833 10832 10830 10830 10832 10833 10832 10834 10837 10837 10836 10834 10831 10830 10828 10825 10822 10819 10814 10811 10806 10802 10799 10796 10793 10791 10787 10783 10780 10776 10777 10767 10759 10756 10752 10748 10742 10737 10732 10726 10722 10717
10820 10825 10826 10824 10823 10822 10822 10822 10824 10824 10826 10825 10824 10822 10819 10817 10813 10811 10806 10801 10797 10793 10789 10786 10784 10781 10778 10773 10770 10766 10763 10763 10755 10749 10744 10738 10735 10729 10723 10718 10714 10710 10708
10816 10818 10817 10814 10813 10813 10811 10814 10814 10816 10815 10814 10813 10811 10808 10804 10801 10799 10795 10790 10785 10781 10778 10774 10773 10770 10767 10761 10758 10753 10749 10751 10744 10733 10733 10729 10721 10717 10710 10706 10703 10702 10698
10806 10807 10804 10801 10799 10799 10801 10803 10803 10805 10805 10803 10802 10799 10797 10793 10792 10788 10784 10778 10774 10770 10766 10763 10762 10758 10753 10749 10744 10740 10735 10738 10730 10718 10715 10713 10709 10705 10700 10695 10693 10691 10689
10800 10794 10790 10790 10788 10788 10793 10794 10794 10794 10793 10793 10790 10788 10787 10785 10782 10778 10771 10767 10763 10758 10755 10752 10748 10745 10741 10736 10732 10728 10723 10722 10717 10705 10700 10700 10695 10692 10689 10687 10684 10681 10679
10793 10787 10782 10778 10777 10781 10785 10784 10784 10783 10780 10781 10780 10778 10778 10774 10770 10765 10759 10756 10752 10748 10743 10741 10737 10732 10730 10725 10721 10715 10708 10708 10706 10694 10688 10684 10682 10682 10680 10677 10675 10673 10670
10776 10772 10772 10767 10767 10771 10774 10774 10775 10771 10771 10771 10770 10770 10765 10761 10756 10753 10748 10744 10740 10735 10732 10728 10725 10720 10719 10713 10707 10704 10694 10692 10689 10681 10677 10672 10671 10668 10665 10665 10664 10661 10659
10764 10764 10767 10760 10761 10764 10766 10765 10764 10763 10763 10764 10762 10758 10753 10748 10745 10741 10734 10732 10729 10724 10722 10720 10716 10709 10705 10700 10693 10687 10684 10679 10674 10668 10663 10660 10657 10656 10654 10653 10653 10650 10647
10749 10755 10751 10751 10757 10758 10759 10758 10757 10756 10758 10756 10753 10746 10742 10737 10733 10725 10724 10721 10716 10711 10709 10706 10701 10695 10691 10686 10681 10673 10668 10662 10660 10659 10652 10649 10646 10645 10644 10642 10638 10637 10635
10741 10746 10747 10749 10751 10751 10750 10748 10748 10747 10747 10745 10740 10736 10732 10722 10719 10717 10712 10708 10703 10700 10694 10688 10685 10679 10674 10668 10665 10659 10654 10647 10642 10639 10638 10635 10632 10631 10627 10626 10625 10621 10621
10736 10738 10741 10743 10742 10742 10740 10736 10736 10734 10733 10734 10729 10725 10718 10711 10711 10705 10698 10692 10688 10688 10680 10674 10667 10663 10658 10652 10646 10642 10636 10630 10624 10622 10621 10614 10612 10613 10610 10608 10608 10604 10600
10730 10730 10733 10732 10729 10728 10727 10729 10726 10723 10719 10721 10719 10714 10706 10700 10699 10698 10687 10679 10675 10671 10664 10657 10651 10646 10642 10636 10629 10624 10620 10614 10607 10606 10605 10600 10597 10595 10592 10588 10587 10585 10582
10725 10725 10723 10724 10720 10721 10720 10718 10713 10713 10709 10708 10706 10703 10696 10691 10685 10684 10677 10666 10661 10655 10649 10645 10638 10632 10624 10619 10614 10610 10606 10599 10596 10592 10590 10587 10582 10576 10573 10570 10564 10560 10561
10713 10713 10712 10712 10713 10709 10708 10705 10706 10703 10700 10697 10693 10689 10684 10678 10672 10665 10660 10656 10647 10639 10631 10625 10620 10614 10610 10605 10598 10594 10589 10583 10577 10572 10568 10565 10563 10559 10553 10548 10543 10540 10538
10700 10703 10704 10704 10700 10699 10696 10695 10694 10692 10688 10683 10680 10676 10673 10667 10660 10651 10644 10639 10633 10626 10618 10611 10604 10599 10594 10588 10581 10575 10571 10564 10556 10551 10548 10541 10538 10536 10533 10530 10526 10520 10518
10694 10693 10694 10694 10689 10690 10688 10687 10686 10683 10679 10674 10670 10666 10659 10652 10645 10637 10631 10625 10618 10613 10606 10598 10590 10583 10576 10569 10563 10555 10548 10541 10534 10527 10523 10518 10514 10511 10510 10508 10506 10503 10498
10686 10684 10685 10684 10682 10682 10680 10678 10676 10673 10667 10662 10659 10652 10644 10639 10632 10624 10617 10611 10607 10600 10593 10585 10577 10568 10560 10555 10549 10542 10534 10525 10518 10513 10507 10499 10495 10491 10487 10483 10479 10479 10478
10679 10680 10677 10677 10673 10670 10669 10667 10664 10660 10655 10649 10643 10634 10632 10626 10621 10615 10608 10596 10589 10585 10580 10572 10563 10555 10546 10539 10534 10525 10519 10510 10501 10494 10488 10478 10471 10467 10460 10453 10448 10446 10444
10669 10672 10668 10666 10663 10660 10656 10653 10650 10646 10639 10636 10630 10624 10622 10616 10609 10605 10598 10589 10579 10572 10565 10556 10547 10539 10530 10522 10516 10510 10505 10490 10481 10471 10465 10458 10445 10437 10429 10417 10413 10410 10407
10658 10660 10656 10656 10651 10648 10646 10643 10640 10635 10629 10625 10620 10613 10609 10604 10599 10592 10583 10575 10567 10557 10547 10538 10529 10521 10514 10502 10493 10488 10485 10478 10471 10455 10442 10429 10412 10403 10392 10380 10372 10368 10365
10648 10647 10644 10642 10640 10639 10634 10632 10629 10624 10620 10613 10608 10602 10597 10592 10584 10577 10568 10558 10549 10541 10531 10519 10508 10498 10491 10484 10472 10462 10455 10451 10448 10446 10430 10414 10394 10378 10362 10346 10333 10326 10320
10640 10636 10635 10632 10628 10628 10624 10622 10620 10614 10611 10604 10599 10592 10583 10578 10572 10564 10555 10543 10532 10521 10510 10499 10488 10478 10470 10463 10453 10445 10437 10426 10411 10405 10406 10389 10371 10350 10334 10319 10304 10292 10283
10630 10628 10625 10622 10619 10620 10615 10610 10607 10603 10600 10596 10590 10583 10576 10570 10562 10553 10544 10533 10523 10512 10501 10488 10474 10463 10453 10445 10435 10423 10411 10399 10384 10369 10361 10352 10343 10322 10302 10283 10268 10257 10248